This demonstration page uses our WeatherBlox Daily Observations layout. Learn more.

Left ArrowRight Arrow

39.12711, -84.51439

Hourly Observations for June 5, 2016

Temp ( °F °C ) Dew Point ( °F °C ) Humidity (%) Winds ( mph kmh ) Pressure ( in mb ) Visibility ( mi km ) Precip ( " mm )
12:15 am 00:15 Cloudy 70 21.1 69 20.6 97 97 VRB 5 7 29.80 1009 10 16 N/A
12:27 am 00:27 Cloudy 70 21.1 68 20 93 93 WSW 7 11 29.80 1009 10 16 N/A
12:53 am 00:53 Cloudy 69 20.6 69 20.6 100 100 N N/A 29.78 1008 10 16 N/A
1:03 am 01:03 Cloudy 70 21 68 20 94 94 SW 3 6 29.80 1009 10 16 N/A
1:53 am 01:53 Partly Cloudy 67 19.4 67 19.4 100 100 S 6 9 29.77 1008 10 16 N/A
2:18 am 02:18 Mostly Cloudy 68 20 68 20 100 100 S 3 6 29.77 1008 10 16 N/A
2:36 am 02:36 Partly Cloudy 66 19 66 19 100 100 S 5 7 29.77 1008 9 14 N/A
2:46 am 02:46 Mostly Cloudy 67 19.4 67 19.4 100 100 S 6 9 29.77 1008 9 14 N/A
2:53 am 02:53 Mostly Cloudy 67 19.4 67 19.4 100 100 S 7 11 29.75 1008 9 14 N/A
3:53 am 03:53 Cloudy 67 19.4 67 19.4 100 100 S 6 9 29.74 1007 8 13 N/A
4:53 am 04:53 Cloudy with Light Rain 67 19.4 67 19.4 100 100 VRB 3 6 29.74 1007 6 10 N/A
5:00 am 05:00 Mostly Cloudy with Light Rain 66 19 66 19 100 100 N N/A 29.74 1007 6 10 N/A
5:15 am 05:15 Mostly Cloudy with Light Rain 67 19.4 67 19.4 100 100 S 5 7 29.74 1007 6 10 0.01 0.25
5:42 am 05:42 Cloudy with Mist and Fog 67 19.4 67 19.4 100 100 SE 3 6 29.74 1007 6 10 0.01 0.25
5:53 am 05:53 Cloudy with Mist and Fog 67 19.4 67 19.4 100 100 N N/A 29.73 1007 6 10 0.01 0.25
6:33 am 06:33 Cloudy with Mist and Fog 67 19.4 67 19.4 100 100 SSW 5 7 29.77 1008 3 5 N/A
6:53 am 06:53 Mostly Cloudy with Mist and Fog 67 19.4 67 19.4 100 100 S 5 7 29.74 1007 4 6 N/A
7:53 am 07:53 Cloudy with Mist and Fog 68 20 68 20 100 100 S 5 7 29.75 1007 4 6 N/A
8:53 am 08:53 Cloudy 70 21.1 67 19.4 90 90 WSW 10 17 29.75 1007 7 11 N/A
9:53 am 09:53 Partly Cloudy 72 22.2 67 19.4 84 84 SW 14 22 29.74 1007 8 13 N/A
10:53 am 10:53 Sunny 75 23.9 67 19.4 76 76 SW 10 17 29.73 1007 10 16 N/A
11:53 am 11:53 Mostly Sunny 77 25 67 19.4 71 71 SW 15 24 29.72 1007 10 16 N/A
12:53 pm 12:53 Mostly Sunny 78 25.6 66 18.9 67 67 SW 13 20 29.72 1006 10 16 N/A
1:53 pm 13:53 Mostly Cloudy 79 26.1 64 17.8 60 60 SW 14 22 29.69 1005 10 16 N/A
2:48 pm 14:48 Mostly Cloudy 75 24 64 18 69 69 WSW 16 26 29.71 1006 10 16 N/A
2:53 pm 14:53 Mostly Cloudy 77 25 63 17.2 62 62 WSW 15 24 29.70 1006 10 16 N/A
3:53 pm 15:53 Mostly Sunny 80 26.7 63 17.2 56 56 WSW 14 22 29.69 1006 10 16 N/A
4:53 pm 16:53 Partly Cloudy 79 26.1 62 16.7 56 56 W 17 28 29.69 1006 10 16 N/A
5:53 pm 17:53 Mostly Sunny 79 26.1 61 16.1 54 54 W 20 31 29.71 1006 10 16 N/A
6:53 pm 18:53 Mostly Cloudy 77 25 60 15.6 56 56 W 15 24 29.72 1007 10 16 N/A
7:53 pm 19:53 Mostly Sunny 76 24.4 58 14.4 54 54 W 10 17 29.74 1007 10 16 N/A
8:53 pm 20:53 Mostly Sunny 74 23.3 57 13.9 56 56 W 10 17 29.75 1008 10 16 N/A
9:53 pm 21:53 Clear 72 22.2 59 15 64 64 W 8 13 29.78 1008 10 16 N/A
10:53 pm 22:53 Clear 67 19.4 60 15.6 79 79 SW 7 11 29.79 1009 10 16 N/A
11:53 pm 23:53 Clear 65 18.3 60 15.6 84 84 SW 6 9 29.80 1009 10 16 N/A

Powered by AerisWeather